Home   Weather   Paris 02 Bourse   Past weeks
Flag for France

Past Weather in Paris 02 Bourse, Paris, France — Yesterday and Last 2 Weeks

Now
75 °F

Clear.


Feels Like: 78 °F
Forecast: 81 / 66 °F
Wind: 5 mph from North

Location: Villacoublay

Current Time: Jul 19, 2019 at 10:59:39 pm

Latest Report: Jul 19, 2019 at 10:00 pm


Visibility: 10 mi

Pressure: 29.92 "Hg

Humidity: 54%

Dew Point: 57 °F

Location of Paris 02 BourseLocation

Past Weather in Paris 02 Bourse — Graph

°F

Paris 02 Bourse Temperature Yesterday

Maximum temperature yesterday: 79 °F (at 3:30 pm)
Minimum temperature yesterday: 59 °F (at 5:30 am)
Average temperature yesterday: 68 °F

High & Low Weather Summary for the Past Weeks

 TemperatureHumidityPressure
High88 °F (Jul 6, 3:30 pm)100% (Jul 18, 10:00 pm)30.15 "Hg (Jul 18, 10:00 pm)
Low54 °F (Jul 15, 6:30 am)23% (Jul 17, 6:00 pm)29.86 "Hg (Jul 6, 4:00 pm)
Average69 °F55%30.03 "Hg
* Reported Jul 4 10:00 pm — Jul 19 10:00 pm, Paris 02 Bourse. Weather by CustomWeather, © 2019

Note: Actual official high and low records may vary slightly from our data, if they occured in-between our weather recording intervals... More about our weather records

Advertising

Paris 02 Bourse Weather History for the Previous 24 Hours

Scroll right to see more
 ConditionsComfort  
Time TempWeatherWind HumidityBarometerVisibility
10:00 pm
Fri, Jul 19
75 °FClear.5 mph54%29.92 "Hg10 mi
9:30 pm77 °FSunny.3 mph47%29.92 "Hg10 mi
9:00 pm79 °FSunny.5 mph48%29.92 "Hg10 mi
8:30 pm79 °FSunny.5 mph48%29.92 "Hg10 mi
8:00 pm81 °FPassing clouds.7 mph39%29.92 "HgN/A
7:30 pm81 °FSunny.8 mph39%29.92 "Hg10 mi
7:00 pm81 °FPassing clouds.8 mph39%29.92 "HgN/A
6:30 pm81 °FPassing clouds.7 mph39%29.92 "HgN/A
6:00 pm81 °FPassing clouds.9 mph37%29.92 "HgN/A
5:30 pm81 °FPassing clouds.12 mph37%29.95 "HgN/A
5:00 pm81 °FPassing clouds.8 mph39%29.95 "HgN/A
4:30 pm81 °FPassing clouds.9 mph39%29.95 "HgN/A
4:00 pm79 °FPassing clouds.9 mph39%29.95 "HgN/A
3:30 pm79 °FPassing clouds.8 mph42%29.95 "HgN/A
3:00 pm77 °FPassing clouds.8 mph47%29.98 "HgN/A
2:30 pm77 °FScattered clouds.10 mph47%29.98 "HgN/A
2:00 pm75 °FPartly sunny.10 mph54%29.98 "HgN/A
1:30 pm75 °FPartly sunny.9 mph54%29.98 "HgN/A
1:00 pm73 °FBroken clouds.7 mph57%30.01 "HgN/A
12:30 pm72 °FBroken clouds.6 mph65%30.01 "HgN/A
12:00 pm72 °FPartly sunny.6 mph65%30.01 "HgN/A
11:30 am70 °FPartly sunny.6 mph69%30.01 "HgN/A
11:00 am70 °FBroken clouds.2 mph73%30.01 "HgN/A
10:30 am68 °FBroken clouds.5 mph78%30.01 "HgN/A
10:00 am66 °FPartly sunny.6 mph83%30.01 "HgN/A
9:30 am66 °FLow clouds.3 mph83%30.01 "HgN/A
9:00 am64 °FPartly sunny.5 mph88%30.01 "HgN/A
8:30 am64 °FScattered clouds.N/A83%30.01 "HgN/A
8:00 am63 °FPartly sunny.3 mph94%30.01 "HgN/A
7:30 am63 °FPassing clouds.3 mph94%30.01 "HgN/A
7:00 am61 °FPartly sunny.3 mph100%29.98 "HgN/A
6:30 am61 °FOvercast.3 mph100%29.98 "HgN/A
6:00 am61 °FMostly cloudy.5 mph100%29.98 "HgN/A
5:30 am61 °FPassing clouds.3 mph100%29.98 "HgN/A
5:00 am61 °FMostly cloudy.6 mph100%29.98 "HgN/A
4:30 am61 °FMostly cloudy.6 mph100%29.98 "HgN/A
4:00 am61 °FPassing clouds.5 mph100%30.01 "HgN/A
3:30 am63 °FPartly cloudy.6 mph94%30.01 "HgN/A
3:00 am63 °FMostly cloudy.6 mph94%30.01 "HgN/A
2:30 am63 °FMostly cloudy.6 mph94%30.01 "HgN/A
2:00 am63 °FLow clouds.6 mph94%29.98 "HgN/A
1:30 am63 °FLow clouds.5 mph94%29.98 "HgN/A
1:00 am63 °FMostly cloudy.3 mph94%29.98 "HgN/A
12:30 am63 °FMostly cloudy.3 mph94%29.98 "HgN/A
12:00 am63 °FPartly cloudy.7 mph94%29.98 "HgN/A
11:30 pm
Thu, Jul 18
63 °FMostly cloudy.9 mph94%29.98 "HgN/A
11:00 pm64 °FMostly cloudy.9 mph94%29.98 "HgN/A
10:30 pm64 °FPassing clouds.9 mph94%29.98 "HgN/A
10:00 pm64 °FPassing clouds.7 mph100%29.95 "Hg6 mi
Weather by CustomWeather, © 2019

See weather overview